Flag for U.S.A. Weather past 2 weeks in Omaha, Nebraska, U.S.A.

Now
81 °F

Sunny.


Feels Like: 84 °F
Forecast: 66 / 89 °F
Wind: 8 mph from Southwest

Location: Millard Airport

Current Time: Aug 1, 2015 at 3:58:47 PM

Latest Report: Aug 1, 2015 at 3:15 PM


Visibility: 10 mi

Pressure: 30.00 "Hg

Humidity: 64%

Dew point: 68 °F

Location of OmahaLocation

Historic Weather in Omaha — Graph

°F

Omaha temperature yesterday

Maximum temperature yesterday: 90 °F (at 2:55 PM)
Minimum temperature yesterday: 68 °F (at 5:55 AM)
Average temperature yesterday: 79 °F

Past Weeks' High & Low Weather Summary

 TemperatureHumidityPressure
High96 °F (Jul 17, 4:55 PM)97% (Aug 1, 5:35 AM)30.21 "Hg (Aug 1, 5:35 AM)
Low61 °F (Jul 30, 5:55 AM)26% (Jul 29, 12:35 PM)29.70 "Hg (Jul 17, 6:15 PM)
Average78 °F72%29.96 "Hg
* Reported Jul 17 2:15 PM — Aug 1 2:35 PM, Omaha, Weather by CustomWeather, © 2015

Note: Actual official high and low records may vary slightly from our data, if they occured in-between our weather recording intervals... More about our weather records

Advertising

Omaha weather history for previous 24 hours

 ConditionsComfort  
Time TempWeatherWind HumidityBarometerVisibility
2:35 PM
Sat, Aug 1
79 °FSunny.3 mph70%30.01 "Hg10 mi
2:15 PM79 °FSunny.5 mph71%30.01 "Hg10 mi
1:55 PM79 °FSunny.3 mph69%30.01 "Hg10 mi
1:35 PM79 °FSunny.7 mph71%30.01 "Hg10 mi
1:15 PM80 °FSunny.5 mph65%30.02 "Hg10 mi
12:55 PM81 °FSunny.5 mph61%30.01 "Hg10 mi
12:15 PM80 °FSunny.3 mph62%30.00 "Hg10 mi
11:55 AM80 °FSunny.6 mph62%30.01 "Hg10 mi
11:35 AM78 °FSunny.3 mph66%30.02 "Hg10 mi
11:15 AM75 °FSunny.6 mph72%30.04 "Hg10 mi
10:55 AM74 °FScattered clouds.No wind75%30.03 "Hg10 mi
10:15 AM73 °FScattered clouds.6 mph73%30.04 "Hg10 mi
9:55 AM72 °FSunny.7 mph75%30.06 "Hg10 mi
9:35 AM72 °FSunny.8 mph76%30.07 "Hg10 mi
9:15 AM71 °FScattered clouds.6 mph84%30.08 "Hg10 mi
8:55 AM71 °FScattered clouds.9 mph85%30.09 "Hg10 mi
8:35 AM70 °FSunny.6 mph89%30.07 "Hg10 mi
8:15 AM70 °FSunny.7 mph93%30.07 "Hg10 mi
7:55 AM69 °FSunny.3 mph94%30.06 "Hg10 mi
7:35 AM69 °FSunny.No wind95%30.04 "Hg10 mi
7:15 AM68 °FClear.No wind95%30.04 "Hg10 mi
6:55 AM68 °FClear.No wind95%30.04 "Hg10 mi
6:35 AM67 °FClear.No wind96%30.04 "Hg10 mi
6:15 AM67 °FClear.No wind96%30.04 "Hg10 mi
5:55 AM67 °FClear.No wind97%30.03 "Hg7 mi
5:35 AM67 °FClear.No wind97%30.03 "Hg7 mi
5:15 AM67 °FFog.No wind95%30.03 "Hg3 mi
4:55 AM67 °FClear.No wind95%30.04 "Hg7 mi
4:35 AM67 °FClear.No wind96%30.03 "Hg10 mi
4:15 AM68 °FClear.No wind94%30.04 "Hg10 mi
3:55 AM68 °FClear.No wind94%30.05 "Hg10 mi
3:15 AM68 °FClear.No wind95%30.05 "Hg10 mi
2:55 AM69 °FClear.No wind94%30.06 "Hg10 mi
2:35 AM69 °FClear.No wind93%30.06 "Hg10 mi
2:15 AM70 °FClear.No wind91%30.07 "Hg10 mi
1:55 AM70 °FClear.No wind90%30.08 "Hg10 mi
1:35 AM70 °FClear.No wind90%30.08 "Hg10 mi
1:15 AM71 °FClear.3 mph89%30.08 "Hg10 mi
12:55 AM71 °FClear.No wind90%30.07 "Hg10 mi
12:15 AM72 °FClear.No wind86%30.07 "Hg10 mi
11:55 PM
Fri, Jul 31
73 °FClear.No wind83%30.07 "Hg10 mi
11:15 PM74 °FClear.No wind81%30.06 "Hg10 mi
10:55 PM74 °FClear.No wind80%30.06 "Hg10 mi
10:15 PM77 °FPassing clouds.7 mph73%30.05 "Hg10 mi
9:55 PM79 °FPartly cloudy.No wind69%30.05 "Hg10 mi
9:35 PM79 °FScattered clouds.3 mph67%30.04 "Hg10 mi
9:15 PM80 °FSunny.5 mph78%30.04 "Hg10 mi
8:55 PM81 °FScattered clouds.3 mph77%30.03 "Hg10 mi
8:35 PM83 °FBroken clouds.6 mph75%30.03 "Hg10 mi
8:15 PM86 °FSunny.No wind73%30.02 "Hg10 mi
7:55 PM86 °FSunny.No wind71%30.01 "Hg10 mi
7:35 PM86 °FScattered clouds.No wind71%30.01 "Hg10 mi
7:15 PM87 °FSunny.No wind68%30.01 "Hg10 mi
6:55 PM87 °FScattered clouds.No wind66%30.03 "Hg10 mi
6:35 PM87 °FScattered clouds.3 mph64%30.03 "Hg10 mi
6:15 PM87 °FPartly sunny.No wind65%30.04 "Hg10 mi
5:55 PM86 °FScattered clouds.No wind68%30.04 "Hg10 mi
5:35 PM88 °FSunny.5 mph61%30.03 "Hg10 mi
5:15 PM89 °FSunny.3 mph60%30.03 "Hg10 mi
4:55 PM86 °FSunny.No wind72%30.03 "Hg10 mi
4:15 PM88 °FScattered clouds.3 mph61%30.06 "Hg10 mi
3:55 PM88 °FPartly sunny.3 mph61%30.06 "Hg10 mi
3:15 PM89 °FBroken clouds.8 mph59%30.07 "Hg10 mi
Weather by CustomWeather, © 2015

See weather overviewHow to use our weather pages